Jacksonville Craig, FL

3:37 AM EDT on October 19, 2017 (GMT -0400)
Craig Municipal

Weather History for KCRG - March, 2013

Change the Weather History Date:

Wednesday, March 13, 2013

  Actual Average Record
Temperature  
Mean Temperature 61 °F -  
Max Temperature 72 °F 70 °F 84 °F (2006)
Min Temperature 51 °F 51 °F 36 °F (1998)
Degree Days  
Heating Degree Days 4    
Growing Degree Days 11 (Base 50)    
Moisture  
Dew Point 32 °F    
Average Humidity 37    
Maximum Humidity 62    
Minimum Humidity 18    
Precipitation  
Precipitation 0.00 in - - ()
Sea Level Pressure  
Sea Level Pressure 30.12 in    
Wind  
Wind Speed 11 mph (NW)    
Max Wind Speed 15 mph    
Max Gust Speed 22 mph    
Visibility 10 miles    
Events      
Averages and records for this station are not official NWS values.
T = Trace of Precipitation, MM = Missing Value Source: NWS Daily Summary

Daily Weather History Graph

Daily Weather History Graph

Search for Another Location

Airport or City:

Trip Planner

Search our weather history database for the weather conditions in past years. The results will help you decide how hot, cold, wet, or windy it might be!

Date:

Astronomy

Mar. 13, 2013 Rise Set
Actual Time 7:38 AM EDT 7:33 PM EDT
Civil Twilight 7:14 AM EDT 7:57 PM EDT
Nautical Twilight 6:46 AM EDT 8:24 PM EDT
Astronomical Twilight 6:18 AM EDT 8:52 PM EDT
Moon 8:27 AM EDT (3/13) 9:35 PM EDT (3/13)
Length of Visible Light 12h 43m
Length of Day
11h 55m
Waxing Crescent, 4% of the Moon is Illuminated
Mar 13
Waxing Crescent
Mar 19
First Quarter
Mar 27
Full
Apr 3
Last Quarter
Apr 10
New

Hourly Weather History & Observations

Time (EDT) Temp. Dew Point Humidity Pressure Visibility Wind Dir Wind Speed Gust Speed Precip Events Conditions
12:53 AM 55.9 °F 42.1 °F 60% 30.03 in 10.0 mi NW 8.1 mph - N/A   Clear
1:53 AM 55.0 °F 42.1 °F 62% 30.04 in 10.0 mi NW 11.5 mph - N/A   Clear
3:53 AM 55.0 °F 37.0 °F 51% 30.04 in 10.0 mi NNW 13.8 mph 21.9 mph N/A   Clear
4:53 AM 55.0 °F 36.0 °F 49% 30.06 in 10.0 mi NNW 15.0 mph - N/A   Clear
5:53 AM 53.1 °F 36.0 °F 52% 30.08 in 10.0 mi NNW 13.8 mph - N/A   Clear
6:53 AM 51.1 °F 36.0 °F 56% 30.10 in 10.0 mi NNW 15.0 mph 21.9 mph N/A   Clear
7:53 AM 51.1 °F 36.0 °F 56% 30.14 in 10.0 mi NNW 15.0 mph - N/A   Clear
8:53 AM 53.1 °F 35.1 °F 50% 30.17 in 10.0 mi NNW 13.8 mph - N/A   Clear
9:53 AM 57.0 °F 34.0 °F 42% 30.18 in 10.0 mi North 11.5 mph - N/A   Clear
10:53 AM 61.0 °F 32.0 °F 34% 30.19 in 10.0 mi NNW 12.7 mph 18.4 mph N/A   Clear
11:53 AM 64.0 °F 30.0 °F 28% 30.19 in 10.0 mi NNW 10.4 mph - N/A   Clear
12:53 PM 66.9 °F 27.0 °F 22% 30.18 in 10.0 mi NNW 8.1 mph 17.3 mph N/A   Clear
1:53 PM 68.0 °F 27.0 °F 21% 30.15 in 10.0 mi NNW 10.4 mph - N/A   Clear
2:53 PM 69.1 °F 27.0 °F 21% 30.11 in 10.0 mi NW 10.4 mph - N/A   Clear
3:53 PM 71.1 °F 25.0 °F 18% 30.09 in 10.0 mi WNW 10.4 mph 21.9 mph N/A   Clear
4:53 PM 71.1 °F 28.0 °F 20% 30.08 in 10.0 mi NW 15.0 mph 19.6 mph N/A   Clear
5:53 PM 70.0 °F 28.9 °F 22% 30.08 in 10.0 mi NW 9.2 mph - N/A   Clear
6:53 PM 66.9 °F 28.0 °F 23% 30.08 in 10.0 mi WNW 12.7 mph - N/A   Clear
7:53 PM 63.0 °F 27.0 °F 26% 30.10 in 10.0 mi NW 10.4 mph - N/A   Clear
8:53 PM 61.0 °F 28.9 °F 30% 30.12 in 10.0 mi NW 8.1 mph - N/A   Clear
9:53 PM 60.1 °F 28.9 °F 31% 30.15 in 10.0 mi NW 9.2 mph - N/A   Clear
10:53 PM 57.0 °F 28.0 °F 33% 30.16 in 10.0 mi NW 4.6 mph - N/A   Clear
11:53 PM 57.0 °F 28.0 °F 33% 30.18 in 10.0 mi NW 6.9 mph - N/A   Clear